Location: Newark
(54.3386°S, 169.8415°W)
Time: 14:32:29
(UTC+00:00)

Transit 2A Rocket - Pass Details

Date: 23 October 2019
Orbit: 594 x 909 km, 66.7° (Epoch: 20 November)

Event Time Altitude Azimuth Distance (km) Brightness Sun altitude
Rises 10:47:45 0° 224° (SW) 3,520 9.2 -24.2°
Reaches altitude 10° 10:50:17 10° 220° (SW) 2,601 8.4 -24.2°
Maximum altitude 10:56:22 64° 138° (SE) 1,020 5.7 -24.3°
Enters shadow 10:59:39 28° 65° (ENE) 1,650 6.4 -24.3°
Drops below altitude 10° 11:02:26 10° 57° (ENE) 2,594 - -24.3°
Sets 11:04:57 0° 53° (NE) 3,510 - -24.3°
